Precipitable_Water
0.20 0.16 0.13 0.17 0.20 0.21 0.19 0.19 0.20 0.22 0.24 0.23 0.22 0.21 0.21 0.26 0.29 0.29 0.29 0.29 0.32 0.40 0.48 0.67 0.85 0.94 0.99 1.04 1.12 1.17 1.19 1.24 1.26 1.21 1.16 1.16 1.12 1.21 1.30 1.39 1.42 1.45 1.56 1.66
0.19 0.17 0.23 0.24 0.22 0.20 0.20 0.18 0.17 0.20 0.24 0.22 0.20 0.17 0.29 0.33 0.31 0.30 0.28 0.29 0.29 0.32 0.39 0.48 0.62 0.76 0.82 0.85 0.96 1.08 1.19 1.25 1.31 1.31 1.31 1.31 1.32 1.36 1.36 1.45 1.50 1.54 1.62 1.70
0.20 0.23 0.26 0.23 0.21 0.20 0.21 0.18 0.18 0.17 0.19 0.20 0.18 0.20 0.29 0.37 0.39 0.38 0.37 0.42 0.42 0.37 0.38 0.42 0.52 0.58 0.72 0.77 0.85 0.98 1.13 1.26 1.31 1.38 1.39 1.41 1.46 1.45 1.39 1.41 1.45 1.53 1.63 1.69
0.21 0.25 0.23 0.22 0.21 0.23 0.18 0.23 0.21 0.20 0.18 0.14 0.23 0.17 0.28 0.35 0.39 0.44 0.47 0.49 0.55 0.49 0.41 0.39 0.41 0.54 0.61 0.73 0.90 1.02 1.13 1.25 1.31 1.33 1.26 1.26 1.22 1.20 1.32 1.38 1.48 1.56 1.70 1.75
0.19 0.22 0.23 0.23 0.22 0.24 0.21 0.24 0.22 0.21 0.17 0.16 0.20 0.19 0.29 0.37 0.34 0.42 0.46 0.53 0.59 0.67 0.56 0.48 0.48 0.57 0.70 0.82 0.93 1.04 1.16 1.23 1.18 1.19 1.19 1.16 1.18 1.29 1.39 1.47 1.50 1.61 1.75 1.72
0.20 0.27 0.29 0.28 0.28 0.27 0.26 0.23 0.22 0.22 0.20 0.14 0.18 0.20 0.28 0.34 0.37 0.42 0.50 0.56 0.62 0.63 0.75 0.81 0.83 0.84 0.90 0.97 0.97 1.04 1.13 1.13 1.13 1.14 1.17 1.16 1.18 1.28 1.32 1.42 1.48 1.69 1.73 1.73
0.23 0.25 0.31 0.32 0.26 0.27 0.24 0.20 0.14 0.13 0.13 0.13 0.20 0.20 0.29 0.38 0.43 0.45 0.47 0.52 0.62 0.69 0.74 0.82 0.87 0.86 0.89 0.94 1.01 1.05 1.01 0.97 1.08 1.15 1.17 1.25 1.27 1.32 1.44 1.55 1.59 1.61 1.66 1.65
0.20 0.20 0.29 0.33 0.28 0.23 0.22 0.21 0.16 0.11 0.12 0.13 0.19 0.18 0.29 0.39 0.43 0.51 0.53 0.55 0.59 0.62 0.82 0.93 1.07 1.01 1.07 1.00 1.03 1.10 1.12 1.13 1.15 1.17 1.16 1.28 1.40 1.54 1.67 1.71 1.70 1.64 1.62 1.65
0.20 0.22 0.33 0.34 0.34 0.29 0.26 0.23 0.27 0.20 0.20 0.15 0.17 0.24 0.29 0.38 0.41 0.46 0.50 0.53 0.58 0.65 0.72 0.81 1.03 1.19 1.20 1.10 1.21 1.18 1.10 1.18 1.26 1.34 1.41 1.47 1.59 1.65 1.58 1.61 1.61 1.61 1.65 1.59
0.28 0.20 0.32 0.36 0.35 0.37 0.31 0.32 0.25 0.26 0.17 0.15 0.15 0.18 0.22 0.30 0.36 0.40 0.44 0.54 0.63 0.68 0.69 0.72 0.76 0.86 1.05 1.12 1.30 1.34 1.30 1.35 1.50 1.62 1.65 1.59 1.58 1.63 1.63 1.64 1.64 1.60 1.56 1.54
0.37 0.30 0.28 0.35 0.34 0.32 0.32 0.30 0.31 0.29 0.27 0.20 0.17 0.19 0.33 0.33 0.37 0.40 0.43 0.61 0.68 0.73 0.74 0.75 0.77 0.85 0.91 1.04 1.21 1.38 1.43 1.57 1.55 1.56 1.63 1.62 1.65 1.57 1.61 1.60 1.67 1.61 1.58 1.54
0.38 0.34 0.25 0.29 0.37 0.41 0.38 0.34 0.32 0.24 0.24 0.28 0.27 0.23 0.41 0.41 0.49 0.54 0.57 0.64 0.70 0.75 0.79 0.82 0.84 0.86 0.87 0.95 1.07 1.23 1.44 1.34 1.36 1.37 1.29 1.19 1.40 1.28 1.34 1.53 1.60 1.54 1.41 1.43
0.35 0.28 0.21 0.22 0.30 0.37 0.32 0.33 0.31 0.30 0.29 0.22 0.21 0.25 0.40 0.46 0.51 0.57 0.59 0.64 0.70 0.72 0.76 0.81 0.85 0.89 0.92 0.98 1.07 1.20 1.29 1.24 1.40 1.42 1.23 1.16 1.05 1.15 1.44 1.47 1.46 1.44 1.38 1.28
0.39 0.30 0.24 0.19 0.22 0.29 0.23 0.26 0.29 0.26 0.19 0.19 0.23 0.25 0.33 0.46 0.49 0.57 0.61 0.68 0.73 0.76 0.79 0.83 0.86 0.95 1.00 1.02 1.11 1.18 1.29 1.46 1.46 1.30 1.25 1.06 1.00 1.26 1.34 1.33 1.34 1.29 1.24 1.17
0.36 0.24 0.27 0.29 0.30 0.33 0.32 0.30 0.32 0.30 0.30 0.23 0.25 0.27 0.41 0.46 0.49 0.55 0.61 0.67 0.72 0.76 0.80 0.81 0.84 0.84 0.93 1.06 1.17 1.29 1.33 1.36 1.40 1.20 1.11 1.01 1.16 1.28 1.29 1.29 1.27 1.26 1.21 1.13
0.40 0.28 0.34 0.30 0.36 0.37 0.33 0.34 0.35 0.34 0.34 0.35 0.38 0.37 0.53 0.59 0.62 0.62 0.65 0.65 0.64 0.66 0.70 0.79 0.86 0.85 0.86 0.95 1.03 1.18 1.27 1.35 1.34 1.22 1.17 1.14 1.28 1.25 1.27 1.26 1.28 1.22 1.13 1.07
0.35 0.34 0.31 0.25 0.35 0.34 0.27 0.31 0.34 0.41 0.47 0.49 0.38 0.50 0.60 0.61 0.63 0.66 0.68 0.68 0.67 0.67 0.68 0.66 0.68 0.85 0.94 0.93 1.01 1.09 1.22 1.35 1.31 1.20 1.22 1.29 1.25 1.23 1.22 1.24 1.24 1.17 1.09 0.99
0.36 0.36 0.37 0.30 0.34 0.23 0.34 0.43 0.45 0.45 0.49 0.55 0.60 0.64 0.68 0.68 0.70 0.69 0.69 0.65 0.64 0.66 0.70 0.72 0.70 0.70 0.81 0.96 1.00 1.04 1.19 1.29 1.28 1.24 1.21 1.31 1.25 1.24 1.24 1.20 1.17 1.13 1.00 0.87
0.47 0.43 0.36 0.32 0.31 0.34 0.35 0.41 0.43 0.40 0.40 0.51 0.52 0.60 0.61 0.64 0.67 0.61 0.67 0.67 0.65 0.65 0.68 0.72 0.73 0.73 0.72 0.81 0.99 1.01 1.04 1.25 1.27 1.26 1.29 1.27 1.25 1.24 1.20 1.15 1.12 1.01 0.89 0.78
0.48 0.49 0.40 0.37 0.29 0.25 0.36 0.46 0.53 0.53 0.35 0.53 0.55 0.54 0.53 0.56 0.44 0.50 0.59 0.61 0.60 0.62 0.63 0.68 0.70 0.75 0.74 0.72 0.78 1.02 1.00 1.05 1.15 1.21 1.26 1.29 1.28 1.22 1.18 1.16 1.01 0.92 0.77 0.70
0.39 0.40 0.35 0.34 0.32 0.35 0.46 0.52 0.56 0.34 0.39 0.57 0.58 0.55 0.54 0.49 0.51 0.55 0.58 0.58 0.62 0.62 0.62 0.67 0.69 0.71 0.74 0.77 0.74 0.82 1.12 1.09 1.11 1.26 1.29 1.27 1.30 1.29 1.19 1.06 0.90 0.76 0.75 0.67
0.38 0.36 0.35 0.38 0.33 0.29 0.52 0.51 0.43 0.52 0.59 0.60 0.59 0.58 0.55 0.55 0.56 0.56 0.57 0.59 0.60 0.60 0.58 0.61 0.63 0.66 0.74 0.76 0.75 0.73 0.98 1.18 1.16 1.20 1.20 1.19 1.16 1.10 1.04 0.86 0.75 0.79 0.74 0.56
0.38 0.44 0.40 0.42 0.40 0.51 0.55 0.51 0.56 0.56 0.52 0.53 0.53 0.54 0.55 0.54 0.54 0.54 0.51 0.52 0.53 0.54 0.55 0.59 0.62 0.69 0.72 0.73 0.78 0.78 0.90 1.20 1.20 1.14 1.13 1.10 1.05 0.96 0.86 0.73 0.75 0.68 0.54 0.43
0.49 0.53 0.45 0.44 0.48 0.49 0.52 0.52 0.51 0.51 0.49 0.49 0.48 0.46 0.45 0.43 0.46 0.46 0.48 0.47 0.47 0.49 0.51 0.53 0.57 0.62 0.73 0.74 0.81 0.89 1.01 1.20 1.21 1.17 1.16 1.11 0.98 0.99 0.84 0.85 0.70 0.53 0.44 0.40
0.49 0.50 0.45 0.43 0.44 0.41 0.38 0.39 0.41 0.42 0.41 0.38 0.37 0.39 0.37 0.35 0.34 0.38 0.39 0.42 0.46 0.53 0.57 0.61 0.60 0.63 0.76 0.80 0.85 0.97 1.07 1.11 1.16 1.16 1.11 1.03 1.05 0.90 0.83 0.78 0.65 0.50 0.46 0.47
0.49 0.43 0.36 0.30 0.34 0.32 0.31 0.34 0.35 0.34 0.34 0.36 0.36 0.37 0.39 0.41 0.41 0.44 0.44 0.47 0.52 0.60 0.66 0.67 0.68 0.71 0.76 0.85 0.86 0.97 1.15 1.21 1.15 1.10 1.11 1.00 1.01 0.88 0.78 0.68 0.52 0.51 0.51 0.48
Wind_Speed
6 5 6 6 7 8 9 9 10 11 12 11 12 13 16 14 12 12 14 14 16 16 18 18 18 20 19 20 20 21 19 18 17 17 18 19 20 21 23 24 26 27 28 28
4 5 5 7 7 8 8 9 11 12 12 11 15 15 12 14 16 16 17 17 18 17 18 18 20 20 20 20 22 22 22 21 20 20 21 21 22 24 25 26 28 28 29 29
4 5 7 5 7 7 7 7 9 10 12 11 13 8 11 13 13 14 15 17 16 16 18 19 20 20 20 21 21 22 22 22 22 23 23 24 24 25 26 27 28 29 30 31
5 5 5 6 7 3 6 7 8 9 8 7 7 8 10 12 13 12 12 9 11 7 10 10 11 15 17 19 18 20 21 22 23 24 25 27 27 27 28 29 30 31 32 32
6 5 4 5 3 3 5 6 7 7 5 4 8 4 10 10 11 12 11 11 9 9 8 8 8 10 13 14 16 18 20 22 22 24 25 25 26 27 28 28 29 31 32 31
6 6 4 5 6 4 5 5 6 4 4 3 6 4 8 9 10 11 10 11 12 11 10 8 8 7 8 10 12 15 16 18 21 23 24 26 27 28 30 31 30 30 29 28
5 3 4 6 6 4 4 6 6 5 6 4 6 5 5 9 11 11 12 13 13 12 11 9 9 9 10 11 11 12 14 17 20 22 25 27 29 30 30 29 29 28 27 26
3 4 4 8 4 3 4 3 2 5 5 8 7 5 6 8 14 13 13 12 12 13 12 12 10 10 9 12 10 12 14 18 20 22 24 26 28 29 29 28 28 27 24 23
4 6 6 4 4 4 5 6 4 3 6 6 6 8 11 10 15 15 14 15 16 16 14 13 13 14 12 14 14 15 17 19 20 21 23 23 24 25 26 26 24 22 21 19
5 6 5 7 6 7 3 6 7 7 7 8 9 10 10 13 15 15 15 16 16 16 16 16 16 17 18 18 18 19 20 21 21 21 22 23 24 25 25 24 22 20 19 19
5 5 10 8 8 9 10 10 9 8 8 8 9 11 8 13 15 16 15 15 16 17 17 18 18 19 19 19 20 21 22 20 20 20 21 23 23 23 24 22 20 19 18 18
8 7 8 10 13 10 9 9 9 10 14 12 12 14 12 15 15 16 16 17 17 17 19 20 20 21 21 22 22 23 24 22 23 26 31 39 29 33 28 24 19 18 18 16
11 10 10 13 13 12 11 13 14 14 14 16 14 16 14 19 18 17 18 19 19 19 20 22 23 24 25 25 24 24 24 25 26 29 32 34 37 27 26 17 18 17 17 17
13 13 13 15 16 16 18 18 17 16 16 19 20 23 21 20 19 19 19 20 21 21 22 23 24 25 27 27 26 25 27 27 26 27 29 29 23 20 17 12 12 13 14 16
13 15 16 16 17 18 18 19 18 20 22 20 21 21 21 20 20 20 20 20 21 22 23 24 26 27 27 27 25 24 25 26 25 26 26 21 20 18 17 14 13 12 13 15
14 15 16 18 18 18 21 21 23 22 20 21 21 19 20 19 19 19 20 21 22 23 24 25 26 27 28 28 27 28 27 25 24 23 21 19 18 17 15 13 11 11 13 16
15 15 16 18 18 20 21 19 17 15 17 18 18 18 18 18 18 18 19 19 19 21 22 24 26 27 28 29 28 28 28 26 26 25 20 18 16 15 13 12 11 12 15 18
17 16 17 19 18 16 16 16 13 10 14 16 16 17 19 20 19 19 20 21 23 24 25 26 28 29 30 30 29 29 29 26 24 23 19 18 16 16 15 14 14 16 18 19
16 15 16 15 15 18 16 12 13 16 16 16 16 17 18 20 19 21 21 23 24 25 27 28 29 30 30 31 31 29 27 25 22 21 18 18 17 17 15 15 16 17 19 21
14 14 13 14 15 15 14 16 18 17 17 16 15 16 18 19 20 22 25 26 28 29 31 32 32 32 31 32 31 30 26 22 20 20 18 18 16 15 15 14 15 17 19 20
15 15 15 15 17 19 19 21 19 17 18 19 20 21 22 22 24 27 30 31 32 33 34 35 35 34 34 32 29 28 25 23 21 19 17 16 14 12 13 14 16 18 19 20
15 15 15 14 16 18 18 18 17 19 21 23 24 25 27 28 30 32 34 36 37 38 38 36 36 33 31 31 29 26 22 21 19 18 15 12 10 11 13 14 16 19 19 20
16 15 16 16 18 21 23 22 23 24 25 27 29 31 32 34 36 37 37 38 39 39 38 37 33 31 28 28 26 25 21 19 17 14 12 10 11 12 14 14 16 17 18 20
18 19 20 20 21 25 28 29 29 28 30 32 34 37 38 39 39 39 40 39 40 39 38 35 32 28 26 24 24 21 18 16 14 13 12 11 11 11 13 14 15 16 18 21
20 21 22 25 26 28 26 27 29 31 34 37 37 38 39 40 40 38 37 36 34 32 30 28 25 24 22 22 22 18 16 14 12 11 11 10 10 10 11 12 14 16 19 23
21 21 21 24 27 27 28 28 29 31 33 34 35 35 35 34 34 34 33 31 28 26 24 23 21 20 19 18 18 15 12 10 9 10 9 10 11 8 10 11 13 16 20 22
Wind_Direction
282 284 265 267 263 266 271 268 274 284 286 290 296 293 299 294 282 280 278 276 273 265 264 260 251 247 246 245 245 245 247 250 252 255 259 262 265 268 270 271 272 274 276 278
288 267 267 282 278 273 270 280 282 283 290 286 298 300 296 296 290 288 286 287 279 274 271 265 254 248 243 246 248 248 249 251 254 259 263 267 270 273 275 276 275 274 276 277
244 265 289 284 304 290 283 279 285 282 303 297 304 296 310 318 309 299 292 287 288 280 278 271 257 248 247 249 253 248 250 252 257 262 267 270 274 276 278 277 276 275 276 277
259 286 299 315 314 307 317 302 295 303 312 286 323 281 313 327 336 349 337 321 307 303 302 295 268 245 250 257 254 253 254 256 262 267 270 269 273 276 278 278 277 277 278 279
265 285 305 318 294 313 296 341 327 326 322 299 324 313 305 336 339 342 346 351 345 336 327 316 292 269 265 262 262 260 260 263 267 269 272 274 275 278 279 281 280 279 276 284
264 272 279 293 294 288 327 336 346 350 5 350 316 336 317 330 327 331 335 342 347 349 337 336 325 307 287 281 275 269 265 271 274 275 275 276 278 280 281 283 284 281 283 283
307 256 282 328 314 276 348 356 338 348 350 296 327 337 299 340 343 330 324 322 327 336 335 327 324 318 307 306 295 282 273 276 281 280 280 279 281 281 282 285 285 284 282 283
306 297 327 323 310 279 318 328 329 310 312 306 321 312 298 328 341 337 344 342 332 339 336 324 316 314 309 318 305 295 290 288 287 287 288 286 286 284 285 288 287 284 282 283
291 274 305 338 343 306 295 337 307 326 320 325 305 312 316 333 339 343 338 342 343 338 324 326 316 316 311 308 304 301 297 295 293 293 294 294 293 290 292 294 288 282 279 278
277 284 286 294 298 325 316 293 312 314 299 298 299 301 296 324 325 329 334 335 335 335 336 329 321 312 306 303 302 300 295 293 294 300 304 303 300 296 294 293 285 281 281 282
284 277 280 289 302 291 298 300 300 290 286 275 288 286 286 309 315 319 321 326 329 329 326 323 322 320 313 307 304 299 298 299 306 310 316 321 319 313 301 290 284 280 279 283
291 271 284 284 292 283 287 288 290 286 284 281 276 276 285 308 317 320 321 321 322 324 323 320 319 317 316 309 304 299 300 302 300 300 303 311 310 321 303 286 282 282 283 287
287 281 286 293 289 287 293 294 292 289 285 275 274 279 285 306 307 310 312 314 315 317 320 320 319 316 312 310 302 299 298 300 298 305 310 311 323 316 318 278 277 282 285 291
281 278 271 270 276 280 286 288 287 282 282 281 276 285 294 299 300 302 306 307 311 313 317 319 319 318 315 310 306 300 298 296 299 308 315 320 328 331 329 306 290 286 290 296
286 282 284 281 281 282 281 281 278 274 277 276 284 287 290 293 293 296 298 304 310 313 315 316 318 318 319 316 310 306 302 300 300 306 311 317 324 326 325 313 293 292 294 300
293 287 289 286 288 289 284 282 278 276 277 280 286 284 285 287 291 300 303 306 309 311 314 315 316 318 320 319 314 307 304 302 302 310 310 314 318 321 318 316 299 299 300 305
289 287 291 286 295 294 292 287 285 280 283 278 279 278 280 287 296 299 302 306 308 310 313 316 318 316 317 318 315 310 305 300 298 305 300 305 310 316 316 315 309 301 305 310
286 289 289 288 296 285 288 294 283 278 284 288 283 283 285 286 284 292 298 300 303 306 307 310 312 313 312 312 313 312 307 300 298 299 295 296 298 302 305 306 306 308 311 312
284 285 288 288 287 292 297 292 289 288 286 288 283 287 290 291 287 288 296 300 302 305 305 303 306 308 309 310 308 308 307 302 302 299 296 292 294 294 297 301 304 309 313 315
295 290 285 289 285 283 285 294 294 291 289 289 287 289 293 294 291 290 296 298 300 303 306 306 304 305 307 310 310 302 297 299 300 300 296 296 294 293 294 299 305 310 315 317
295 292 281 282 281 287 292 294 290 285 288 290 291 292 295 293 289 292 295 297 298 300 303 305 303 301 301 302 306 302 290 292 295 297 292 295 294 295 297 302 308 313 317 319
286 286 286 286 285 289 299 297 295 287 290 290 292 292 292 292 293 295 297 295 296 298 299 300 301 298 297 298 295 298 294 293 289 291 288 286 293 298 303 307 310 316 318 321
290 281 282 278 283 288 294 294 293 290 289 291 292 293 293 292 293 294 295 297 298 298 298 297 296 294 297 300 299 292 287 288 287 283 279 280 288 297 307 310 314 319 322 324
288 285 283 288 288 288 290 293 291 289 290 291 292 292 292 291 292 293 294 295 297 297 296 293 290 290 289 298 303 294 284 282 281 279 277 274 288 289 306 314 320 324 326 327
283 289 288 288 293 294 291 293 293 293 293 294 294 294 294 294 293 293 294 296 297 296 297 296 290 285 285 295 303 295 284 277 276 278 273 280 278 293 310 318 323 328 330 330
287 287 289 291 294 293 295 295 296 296 296 296 296 297 297 296 295 295 296 295 294 295 297 296 293 286 287 295 305 295 284 270 275 279 281 276 274 303 312 323 329 333 334 335